Meteo pe oră la Bolshie Zalomy

Astăzi, 18 Mai, Marţi

Timp Temperatura Precipitaţii Vânt Presiune Umiditate
00:00 +19°C° 0 mm 5 m/s 738 mmHg 78%
01:00 +18°C° 0 mm 4 m/s 738 mmHg 77%
02:00 +17°C° 0 mm 4 m/s 738 mmHg 77%
03:00 +15°C° 0 mm 4 m/s 738 mmHg 77%
04:00 +15°C° 0 mm 4 m/s 738 mmHg 78%
05:00 +15°C° 0 mm 4 m/s 738 mmHg 79%
06:00 +15°C° 0 mm 4 m/s 738 mmHg 79%
07:00 +17°C° 0 mm 5 m/s 738 mmHg 74%
08:00 +19°C° 0 mm 5 m/s 738 mmHg 69%
09:00 +21°C° 0 mm 6 m/s 739 mmHg 64%
10:00 +22°C° 0 mm 6 m/s 739 mmHg 60%
11:00 +23°C° 0 mm 6 m/s 739 mmHg 56%
12:00 +26°C° 0 mm 6 m/s 738 mmHg 52%
13:00 +26°C° 0 mm 6 m/s 738 mmHg 54%
14:00 +27°C° 0 mm 6 m/s 738 mmHg 55%
15:00 +27°C° 0 mm 6 m/s 738 mmHg 57%
16:00 +26°C° 0 mm 6 m/s 737 mmHg 59%
17:00 +24°C° 0 mm 7 m/s 737 mmHg 61%
18:00 +24°C° 0 mm 7 m/s 737 mmHg 64%
19:00 +23°C° 0 mm 6 m/s 737 mmHg 67%
20:00 +22°C° 0 mm 6 m/s 737 mmHg 71%
21:00 +20°C° 0 mm 5 m/s 737 mmHg 75%
22:00 +19°C° 0 mm 4 m/s 737 mmHg 80%
23:00 +18°C° 0 mm 3 m/s 737 mmHg 85%

Mâine, 19 Mai, Miercuri

Timp Temperatura Precipitaţii Vânt Presiune Umiditate
00:00 +17°C° 0 mm 2 m/s 737 mmHg 90%
01:00 +16°C° 0.2 mm 2 m/s 737 mmHg 91%
02:00 +16°C° 0.2 mm 2 m/s 737 mmHg 91%
03:00 +15°C° 0.2 mm 1 m/s 737 mmHg 92%
04:00 +16°C° 0 mm 2 m/s 737 mmHg 92%
05:00 +16°C° 0 mm 2 m/s 737 mmHg 91%
06:00 +16°C° 0 mm 2 m/s 737 mmHg 91%
07:00 +17°C° 0 mm 3 m/s 737 mmHg 85%
08:00 +19°C° 0 mm 4 m/s 737 mmHg 80%
09:00 +20°C° 0 mm 4 m/s 738 mmHg 74%
10:00 +21°C° 0 mm 4 m/s 738 mmHg 70%
11:00 +21°C° 0 mm 4 m/s 738 mmHg 66%
12:00 +22°C° 0 mm 5 m/s 738 mmHg 61%
13:00 +23°C° 0.1 mm 5 m/s 738 mmHg 60%
14:00 +23°C° 0.1 mm 5 m/s 738 mmHg 59%
15:00 +23°C° 0.1 mm 5 m/s 737 mmHg 58%
16:00 +23°C° 0.2 mm 5 m/s 737 mmHg 63%
17:00 +22°C° 0.2 mm 4 m/s 737 mmHg 68%
18:00 +22°C° 0.2 mm 3 m/s 737 mmHg 73%
19:00 +20°C° 0.4 mm 3 m/s 737 mmHg 77%
20:00 +19°C° 0.4 mm 2 m/s 737 mmHg 80%
21:00 +18°C° 0.4 mm 2 m/s 736 mmHg 84%
22:00 +17°C° 0.2 mm 2 m/s 736 mmHg 86%
23:00 +17°C° 0.2 mm 2 m/s 736 mmHg 89%

Poimâine, 20 Mai, Joi

Timp Temperatura Precipitaţii Vânt Presiune Umiditate
00:00 +16°C° 0.2 mm 3 m/s 736 mmHg 91%
01:00 +16°C° 0.1 mm 3 m/s 736 mmHg 92%
02:00 +14°C° 0.1 mm 3 m/s 736 mmHg 93%
03:00 +14°C° 0.1 mm 3 m/s 736 mmHg 94%
04:00 +13°C° 0 mm 3 m/s 736 mmHg 93%
05:00 +13°C° 0 mm 4 m/s 736 mmHg 93%
06:00 +13°C° 0 mm 4 m/s 736 mmHg 93%
07:00 +14°C° 0 mm 4 m/s 736 mmHg 89%
08:00 +14°C° 0 mm 4 m/s 736 mmHg 85%
09:00 +15°C° 0 mm 4 m/s 736 mmHg 81%
10:00 +16°C° 0.4 mm 5 m/s 736 mmHg 77%
11:00 +17°C° 0.4 mm 6 m/s 737 mmHg 73%
12:00 +18°C° 0.4 mm 7 m/s 737 mmHg 68%
13:00 +18°C° 0.4 mm 7 m/s 737 mmHg 69%
14:00 +18°C° 0.4 mm 7 m/s 737 mmHg 69%
15:00 +18°C° 0.4 mm 7 m/s 737 mmHg 69%
16:00 +17°C° 0.3 mm 6 m/s 737 mmHg 72%
17:00 +17°C° 0.3 mm 6 m/s 736 mmHg 75%
18:00 +17°C° 0.3 mm 5 m/s 736 mmHg 78%
19:00 +15°C° 0.1 mm 5 m/s 737 mmHg 83%
20:00 +14°C° 0.1 mm 4 m/s 737 mmHg 88%
21:00 +13°C° 0.1 mm 3 m/s 737 mmHg 93%
22:00 +12°C° 0.1 mm 4 m/s 737 mmHg 94%
23:00 +12°C° 0.1 mm 4 m/s 737 mmHg 94%

21 Mai, Vineri

Timp Temperatura Precipitaţii Vânt Presiune Umiditate
00:00 +12°C° 0.1 mm 5 m/s 737 mmHg 95%
01:00 +12°C° 0.1 mm 5 m/s 736 mmHg 94%
02:00 +12°C° 0.1 mm 5 m/s 736 mmHg 93%
03:00 +12°C° 0.1 mm 5 m/s 736 mmHg 92%
04:00 +10°C° 0.2 mm 5 m/s 736 mmHg 91%
05:00 +9°C° 0.2 mm 5 m/s 737 mmHg 91%
06:00 +8°C° 0.2 mm 6 m/s 737 mmHg 90%
07:00 +8°C° 0.1 mm 6 m/s 737 mmHg 90%
08:00 +8°C° 0.1 mm 7 m/s 738 mmHg 90%
09:00 +8°C° 0.1 mm 7 m/s 738 mmHg 89%
10:00 +8°C° 0.1 mm 7 m/s 739 mmHg 89%
11:00 +8°C° 0.1 mm 7 m/s 739 mmHg 89%
12:00 +7°C° 0.1 mm 8 m/s 739 mmHg 89%
13:00 +9°C° 0 mm 7 m/s 740 mmHg 88%
14:00 +9°C° 0 mm 7 m/s 741 mmHg 88%
15:00 +9°C° 0 mm 7 m/s 741 mmHg 87%
16:00 +10°C° 0 mm 6 m/s 742 mmHg 85%
17:00 +11°C° 0 mm 6 m/s 742 mmHg 82%
18:00 +12°C° 0 mm 5 m/s 743 mmHg 80%
19:00 +12°C° 0 mm 4 m/s 744 mmHg 82%
20:00 +11°C° 0 mm 3 m/s 744 mmHg 85%
21:00 +10°C° 0 mm 3 m/s 745 mmHg 87%
22:00 +10°C° 0 mm 3 m/s 745 mmHg 86%
23:00 +9°C° 0 mm 3 m/s 745 mmHg 86%

22 Mai, Sâmbătă

Timp Temperatura Precipitaţii Vânt Presiune Umiditate
00:00 +9°C° 0 mm 3 m/s 745 mmHg 85%
01:00 +10°C° 0 mm 2 m/s 745 mmHg 84%
02:00 +10°C° 0 mm 2 m/s 745 mmHg 83%
03:00 +11°C° 0 mm 1 m/s 746 mmHg 82%
04:00 +11°C° 0 mm 1 m/s 746 mmHg 83%
05:00 +12°C° 0 mm 1 m/s 746 mmHg 83%
06:00 +12°C° 0 mm 1 m/s 746 mmHg 83%
07:00 +12°C° 0.3 mm 2 m/s 746 mmHg 85%
08:00 +12°C° 0.3 mm 2 m/s 746 mmHg 88%
09:00 +11°C° 0.3 mm 3 m/s 747 mmHg 90%
10:00 +11°C° 0.2 mm 3 m/s 746 mmHg 91%
11:00 +10°C° 0.2 mm 3 m/s 746 mmHg 91%
12:00 +10°C° 0.2 mm 3 m/s 746 mmHg 92%
13:00 +10°C° 0.4 mm 3 m/s 746 mmHg 93%
14:00 +10°C° 0.4 mm 3 m/s 746 mmHg 93%
15:00 +10°C° 0.4 mm 3 m/s 746 mmHg 94%
16:00 +10°C° 0.5 mm 3 m/s 746 mmHg 93%
17:00 +11°C° 0.5 mm 3 m/s 746 mmHg 93%
18:00 +11°C° 0.5 mm 4 m/s 745 mmHg 92%
19:00 +10°C° 0 mm 4 m/s 745 mmHg 94%
20:00 +10°C° 0 mm 3 m/s 745 mmHg 95%
21:00 +10°C° 0 mm 3 m/s 745 mmHg 97%
22:00 +10°C° 0 mm 3 m/s 745 mmHg 97%
23:00 +10°C° 0 mm 3 m/s 744 mmHg 98%

23 Mai, Duminică

Timp Temperatura Precipitaţii Vânt Presiune Umiditate
00:00 +10°C° 0 mm 3 m/s 744 mmHg 98%
01:00 +10°C° 0.1 mm 3 m/s 744 mmHg 98%
02:00 +10°C° 0.1 mm 3 m/s 744 mmHg 98%
03:00 +10°C° 0.1 mm 3 m/s 743 mmHg 98%
04:00 +11°C° 0.1 mm 3 m/s 743 mmHg 98%
05:00 +11°C° 0.1 mm 3 m/s 743 mmHg 98%
06:00 +11°C° 0.1 mm 3 m/s 742 mmHg 98%
07:00 +12°C° 0 mm 3 m/s 742 mmHg 97%
08:00 +13°C° 0 mm 3 m/s 742 mmHg 97%
09:00 +13°C° 0 mm 3 m/s 741 mmHg 96%
10:00 +16°C° 0.1 mm 2 m/s 741 mmHg 94%
11:00 +17°C° 0.1 mm 2 m/s 741 mmHg 91%
12:00 +18°C° 0.1 mm 2 m/s 740 mmHg 88%
13:00 +19°C° 0.1 mm 2 m/s 740 mmHg 87%
14:00 +19°C° 0.1 mm 2 m/s 740 mmHg 86%
15:00 +20°C° 0.1 mm 2 m/s 739 mmHg 84%
16:00 +20°C° 0.2 mm 3 m/s 739 mmHg 85%
17:00 +20°C° 0.2 mm 3 m/s 739 mmHg 86%
18:00 +20°C° 0.2 mm 4 m/s 739 mmHg 87%
19:00 +19°C° 0 mm 4 m/s 739 mmHg 88%
20:00 +18°C° 0 mm 3 m/s 739 mmHg 88%
21:00 +17°C° 0 mm 3 m/s 740 mmHg 88%
22:00 +16°C° 0 mm 3 m/s 740 mmHg 90%
23:00 +14°C° 0 mm 3 m/s 740 mmHg 91%
Arată mai mult

Formular de consimțământ

Meteoprog și furnizorii noștri de servicii pot stoca și accesa date personale, precum cookies, identificatori de dispozitiv sau alte tehnologii similare pe dispozitivul dumneavoastră și procesa astfel de date pentru a personaliza conținutul și reclamele, dar și pentru a oferi caracteristici de social media și pentru a analiza traficul.

  • Stocarea și/sau accesarea informațiilor pe dispozitivul dumneavoastră

    Cookies, identificatori de dispozitiv sau alte informații pot fi stocate sau accesate pe dispozitiv în scopurile indicate mai sus.

  • Reclame și conținut personalizat, evaluarea reclamelor și a conținutului, informații despre audiențe și dezvoltarea produselor

    Reclamele și conținutul pot fi personalizate pe baza unui profil. Pot fi adăugate date suplimentare pentru a personaliza mai bine reclamele și conținutul. Performanța reclamelor și conținutului poate fi măsurată. Pot fi obținute informații despre utilizatorii care au văzut reclamele și conținutul. Aceste date pot fi utilizate pentru a dezvolta sau îmbunătăți experiența utilizatorilor, sistemele și software-ul.

Dând clic pe ‘Sunt de acord’, permiteți utilizarea cookie-urilor menționate, a identificatorilor de dispozitiv, balizelor web sau altor tehnologii similare. Setările pot fi modificate din browser-ul dispozitivului dumneavoastră.

În anumite scopuri, interesele legitime pot prima asupra consimțământului. Puteți citi mai multe informații în acest sens în Politica privind Confidențialitatea Datelor și Cookie.